Location: *
(50.2903°S, 172.5375°W)
Time: 10:54:08
(UTC+00:00)

IRS-1D - Pass Details

Date: 17 November 2019
Orbit: 739 x 817 km, 98.5° (Epoch: 10 December)

Event Time Altitude Azimuth Distance (km) Brightness Sun altitude
Exits shadow 12:12:00 23° 37° (NE) 1,656 4.9 -19.6°
Maximum altitude 12:15:16 62° 110° (ESE) 908 4.0 -19.5°
Drops below altitude 10° 12:20:33 10° 189° (S) 2,422 7.0 -19.2°
Sets 12:22:57 0° 192° (SSW) 3,368 7.9 -19.1°
